Weather History for Three Rivers, MI

Change the Weather History Date:

Saturday, January 25, 2014

  Actual Average Record
Temperature  
Mean Temperature 18 °F -  
Max Temperature 28 °F 33 °F 67 °F (1950)
Min Temperature 9 °F 17 °F -15 °F (1961)
Degree Days  
Heating Degree Days 46    
Moisture  
Dew Point 14 °F    
Average Humidity 77    
Maximum Humidity 89    
Minimum Humidity 58    
Precipitation  
Precipitation 0.00 in - - ()
Sea Level Pressure  
Sea Level Pressure 29.52 in    
Wind  
Wind Speed 16 mph (West)    
Max Wind Speed 28 mph    
Max Gust Speed 37 mph    
Visibility 3 miles    
Events Snow    
Averages and records for this station are not official NWS values.
T = Trace of Precipitation, MM = Missing Value Source: NWS Daily Summary

Daily Weather History Graph

Daily Weather History Graph

Search for Another Location

Airport:

Trip Planner

Search our weather history database for the weather conditions in past years. The results will help you decide how hot, cold, wet, or windy it might be!

Date:

Astronomy

Jan. 25, 2014 Rise Set
Actual Time 8:01 AM EST 5:48 PM EST
Civil Twilight 7:31 AM EST 6:18 PM EST
Nautical Twilight 6:57 AM EST 6:52 PM EST
Astronomical Twilight 6:24 AM EST 7:25 PM EST
Moon 2:32 AM EST (1/25) 12:48 PM EST (1/25)
Length of Visible Light 10h 47m
Length of Day
9h 47m
Waning Crescent, 34% of the Moon is Illuminated
Jan 25
Waning Crescent
Jan 30
New
Feb 6
First Quarter
Feb 14
Full
Feb 22
Last Quarter

Hourly Weather History & Observations

Time (EST) Temp. Windchill Dew Point Humidity Pressure Visibility Wind Dir Wind Speed Gust Speed Precip Events Conditions
12:15 AM 21.2 °F 6.0 °F 17.4 °F 85% 29.50 in 1.2 mi SW 19.6 mph 25.3 mph N/A Snow Light Snow
12:35 AM 21.7 °F 8.0 °F 18.0 °F 85% 29.48 in 1.0 mi SW 16.1 mph 24.2 mph N/A Snow Snow
12:55 AM 21.7 °F 8.0 °F 18.1 °F 86% 29.46 in 1.2 mi SW 16.1 mph 25.3 mph N/A Snow Light Snow
1:14 AM 22.1 °F 7.6 °F 18.5 °F 86% 29.45 in 1.8 mi SW 18.4 mph 25.3 mph N/A Snow Light Snow
1:35 AM 22.6 °F 7.9 °F 18.5 °F 84% 29.43 in 1.5 mi SW 19.6 mph 23.0 mph N/A Snow Light Snow
1:55 AM 22.8 °F 8.9 °F 19.2 °F 86% 29.42 in 1.2 mi SW 17.3 mph 23.0 mph N/A Snow Light Snow
2:14 AM 23.0 °F 10.1 °F 19.4 °F 86% 29.41 in 1.2 mi SW 15.0 mph 23.0 mph N/A Snow Light Snow
2:35 AM 23.5 °F 9.4 °F 19.9 °F 86% 29.39 in 1.8 mi SW 18.4 mph 26.5 mph N/A Snow Light Snow
2:54 AM 23.7 °F 10.5 °F 19.9 °F 85% 29.39 in 1.8 mi SW 16.1 mph 23.0 mph N/A Snow Light Snow
3:15 AM 23.9 °F 11.7 °F 20.3 °F 86% 29.38 in 1.0 mi SW 13.8 mph 21.9 mph N/A Snow Snow
3:35 AM 24.6 °F 12.7 °F 21.2 °F 87% 29.36 in 1.2 mi SW 13.8 mph 21.9 mph N/A Snow Light Snow
3:54 AM 24.8 °F 12.9 °F 21.2 °F 86% 29.35 in 1.5 mi SW 13.8 mph 23.0 mph N/A Snow Light Snow
4:15 AM 25.3 °F 12.2 °F 21.6 °F 86% 29.35 in 2.0 mi SW 17.3 mph 24.2 mph N/A Snow Light Snow
4:35 AM 25.7 °F 13.5 °F 21.9 °F 86% 29.34 in 1.5 mi SW 15.0 mph 23.0 mph N/A Snow Light Snow
4:54 AM 25.7 °F 14.6 °F 22.5 °F 88% 29.33 in 1.5 mi SW 12.7 mph - N/A Snow Light Snow
5:15 AM 26.2 °F 16.4 °F 23.0 °F 88% 29.33 in 1.2 mi SW 10.4 mph 17.3 mph N/A Snow Light Snow
5:34 AM 26.2 °F 14.2 °F 23.0 °F 88% 29.32 in 1.5 mi SSW 15.0 mph - N/A Snow Light Snow
5:55 AM 26.2 °F 16.4 °F 23.0 °F 88% 29.32 in 3.0 mi SW 10.4 mph 16.1 mph N/A Snow Light Snow
6:14 AM 26.6 °F 16.2 °F 23.0 °F 86% 29.32 in 2.5 mi SW 11.5 mph - N/A Snow Light Snow
6:35 AM 26.6 °F 16.8 °F 23.7 °F 89% 29.32 in 0.8 mi SW 10.4 mph - N/A Snow Snow
6:55 AM 27.3 °F 17.1 °F 24.4 °F 89% 29.33 in 1.2 mi West 11.5 mph 17.3 mph N/A Snow Light Snow
7:14 AM 28.4 °F 19.7 °F 25.3 °F 88% 29.33 in 2.5 mi West 9.2 mph - N/A Snow Light Snow
7:35 AM 28.8 °F 19.5 °F 24.4 °F 84% 29.33 in 10.0 mi WNW 10.4 mph - N/A   Overcast
7:55 AM 27.7 °F 15.2 °F 23.0 °F 83% 29.34 in 10.0 mi West 17.3 mph 23.0 mph N/A   Mostly Cloudy
8:14 AM 28.0 °F 17.5 °F 18.7 °F 68% 29.34 in 10.0 mi WNW 12.7 mph 19.6 mph N/A   Scattered Clouds
8:35 AM 28.8 °F 16.6 °F 18.7 °F 66% 29.35 in 5.0 mi WNW 17.3 mph 26.5 mph N/A Snow Light Snow
8:55 AM 27.1 °F 14.9 °F 22.1 °F 81% 29.36 in 1.8 mi WNW 16.1 mph - N/A Snow Light Snow
9:15 AM 27.0 °F 14.3 °F 22.1 °F 82% 29.36 in 1.0 mi WNW 17.3 mph 26.5 mph N/A Snow Light Snow
9:35 AM 26.6 °F 15.2 °F 22.5 °F 84% 29.37 in 1.2 mi WNW 13.8 mph - N/A Snow Light Snow
9:54 AM 26.2 °F 12.2 °F 22.1 °F 84% 29.39 in 0.8 mi WNW 20.7 mph 27.6 mph N/A Snow Light Snow
10:15 AM 25.7 °F 10.2 °F 16.5 °F 68% 29.40 in 1.8 mi WNW 25.3 mph 36.8 mph N/A   Haze
10:35 AM 24.3 °F 9.6 °F 12.2 °F 60% 29.42 in 2.0 mi WNW 20.7 mph 32.2 mph N/A   Haze
10:55 AM 24.8 °F 9.6 °F 12.0 °F 58% 29.42 in 4.0 mi WNW 23.0 mph 27.6 mph N/A   Haze
11:15 AM 22.6 °F 5.5 °F 17.1 °F 79% 29.44 in 0.5 mi NW 27.6 mph 32.2 mph N/A Snow Light Snow
11:35 AM 22.8 °F 7.7 °F 15.1 °F 72% 29.45 in 3.0 mi NW 20.7 mph 28.8 mph N/A Snow Light Snow
11:55 AM 21.7 °F 7.5 °F 12.7 °F 68% 29.47 in 2.0 mi NNW 17.3 mph 28.8 mph N/A Snow Light Snow
12:15 PM 20.7 °F 6.1 °F 12.4 °F 70% 29.48 in 1.2 mi NNW 17.3 mph 28.8 mph N/A   Haze
12:34 PM 21.0 °F 3.6 °F 10.0 °F 63% 29.48 in 2.0 mi NNW 26.5 mph 31.1 mph N/A Snow Light Snow
12:55 PM 19.8 °F 5.0 °F 9.7 °F 65% 29.50 in 4.0 mi NNW 17.3 mph 25.3 mph N/A   Haze
1:15 PM 20.1 °F 6.4 °F 9.5 °F 63% 29.50 in 3.0 mi NW 15.0 mph 26.5 mph N/A   Haze
1:34 PM 19.8 °F 4.5 °F 9.0 °F 63% 29.51 in 3.0 mi NNW 18.4 mph 27.6 mph N/A   Haze
1:55 PM 18.9 °F 2.1 °F 11.3 °F 72% 29.52 in 1.0 mi NW 21.9 mph 28.8 mph N/A Snow Light Snow
2:15 PM 18.7 °F 4.6 °F 11.1 °F 72% 29.53 in 1.5 mi NW 15.0 mph 26.5 mph N/A Snow Light Snow
2:34 PM 18.0 °F 0.6 °F 10.2 °F 72% 29.54 in 1.0 mi NW 23.0 mph 32.2 mph N/A Snow Light Snow
2:55 PM 18.1 °F 3.9 °F 11.7 °F 76% 29.55 in 0.8 mi NNW 15.0 mph 24.2 mph N/A Snow Light Snow
3:15 PM 16.9 °F 1.2 °F 8.6 °F 70% 29.56 in 1.8 mi NW 17.3 mph 27.6 mph N/A   Haze
3:34 PM 16.9 °F 1.2 °F 7.3 °F 66% 29.58 in 4.0 mi NW 17.3 mph 25.3 mph N/A   Haze
3:55 PM 16.3 °F 1.0 °F 7.7 °F 69% 29.59 in 2.5 mi WNW 16.1 mph 26.5 mph N/A Snow Light Snow
4:15 PM 15.6 °F -1.8 °F 6.8 °F 68% 29.61 in 3.0 mi NW 20.7 mph 27.6 mph N/A   Haze
4:35 PM 15.8 °F 2.7 °F 9.0 °F 74% 29.62 in 1.0 mi WNW 11.5 mph 19.6 mph N/A Snow Light Snow
4:55 PM 15.6 °F -0.9 °F 9.5 °F 77% 29.63 in 1.8 mi West 18.4 mph 25.3 mph N/A Snow Light Snow
5:14 PM 14.7 °F -1.1 °F 6.3 °F 69% 29.64 in 5.0 mi WNW 16.1 mph 21.9 mph N/A   Haze
5:35 PM 14.7 °F -2.9 °F 3.9 °F 62% 29.66 in 7.0 mi WNW 20.7 mph 25.3 mph N/A   Overcast
5:55 PM 14.0 °F -2.5 °F 6.8 °F 73% 29.67 in 2.0 mi WNW 17.3 mph 26.5 mph N/A Snow Light Snow
6:14 PM 13.8 °F 1.0 °F 8.4 °F 79% 29.69 in 2.0 mi WNW 10.4 mph - N/A Snow Light Snow
6:35 PM 13.8 °F 1.0 °F 8.6 °F 80% 29.69 in 4.0 mi West 10.4 mph - N/A Snow Light Snow
6:55 PM 13.8 °F 1.0 °F 7.9 °F 77% 29.70 in 2.5 mi WNW 10.4 mph 21.9 mph N/A Snow Light Snow
7:14 PM 13.8 °F -0.5 °F 7.7 °F 77% 29.72 in 2.5 mi WNW 12.7 mph 18.4 mph N/A Snow Light Snow
7:35 PM 13.8 °F 1.0 °F 7.5 °F 76% 29.73 in 4.0 mi West 10.4 mph - N/A Snow Light Snow
7:55 PM 13.8 °F 1.8 °F 7.7 °F 77% 29.74 in 2.5 mi WNW 9.2 mph - N/A Snow Light Snow
8:14 PM 13.5 °F -0.2 °F 8.2 °F 80% 29.74 in 2.0 mi West 11.5 mph - N/A Snow Light Snow
8:35 PM 13.5 °F -0.9 °F 8.4 °F 80% 29.74 in 2.0 mi WNW 12.7 mph - N/A Snow Light Snow
8:55 PM 13.3 °F -1.8 °F 7.9 °F 79% 29.75 in 2.5 mi WNW 13.8 mph 19.6 mph N/A Snow Light Snow
9:15 PM 13.1 °F 0.9 °F 7.2 °F 77% 29.75 in 4.0 mi WNW 9.2 mph - N/A Snow Light Snow
9:35 PM 12.7 °F -1.1 °F 6.8 °F 77% 29.76 in 4.0 mi West 11.5 mph - N/A   Haze
9:55 PM 13.1 °F -1.4 °F 7.2 °F 77% 29.77 in 4.0 mi West 12.7 mph - N/A Snow Light Snow
10:15 PM 12.7 °F -1.1 °F 6.8 °F 77% 29.78 in 5.0 mi WNW 11.5 mph - N/A Snow Light Snow
10:35 PM 12.9 °F -0.9 °F 5.9 °F 74% 29.77 in 7.0 mi West 11.5 mph - N/A   Overcast
10:55 PM 12.2 °F -1.8 °F 5.0 °F 73% 29.76 in 7.0 mi West 11.5 mph - N/A   Overcast
11:15 PM 10.8 °F -2.0 °F 3.6 °F 73% 29.77 in 10.0 mi WNW 9.2 mph - N/A   Scattered Clouds
11:34 PM 9.7 °F -2.4 °F 1.9 °F 71% 29.78 in 10.0 mi West 8.1 mph - N/A   Clear
11:55 PM 10.4 °F 4.0 °F 2.3 °F 70% 29.78 in 10.0 mi West 3.5 mph - N/A   Scattered Clouds